Location: Shenandoah County Park
(38.9356°N, 78.4524°W)
Time: 09:27:20
(UTC-05:00)

Transit 2A - All Passes

Search period start: 02 December 2023 00:00
Search period end: 12 December 2023 00:00
Orbit: 600 x 953 km, 66.7° (Epoch: 01 December)

Date Brightness Start Highest point End Pass type
(mag) Time Alt. Az. Time Alt. Az. Time Alt. Az.
02 Dec - 00:21:30 10° N 00:24:37 19° NE 00:27:46 10° E night (unlit)
02 Dec - 02:03:44 10° NW 02:07:50 42° WSW 02:12:04 10° S night (unlit)
02 Dec - 14:59:39 10° SSE 15:03:40 22° ESE 15:07:27 10° ENE daylight
02 Dec - 16:41:36 10° SW 16:46:33 42° WNW 16:51:05 10° NNE daylight
02 Dec - 23:47:28 10° NNE 23:49:27 13° NE 23:51:28 10° ENE night (unlit)
03 Dec - 01:28:39 10° NNW 01:32:59 70° WSW 01:37:28 10° SSE night (unlit)
03 Dec - 14:26:13 10° SE 14:28:54 14° ESE 14:31:30 10° ENE daylight
03 Dec - 16:06:22 10° SW 16:11:35 65° WNW 16:16:20 10° NNE daylight
04 Dec - 00:53:44 10° NNW 00:58:05 71° ENE 01:02:33 10° SE night (unlit)
04 Dec - 15:31:23 10° SSW 15:36:40 82° ESE 15:41:27 10° NNE daylight
04 Dec - 17:17:44 10° WNW 17:20:14 14° NW 17:22:39 10° NNW visible
05 Dec - 00:18:57 10° NNW 00:23:07 44° ENE 00:27:23 10° SE night (unlit)
05 Dec - 02:03:07 10° WNW 02:05:49 16° WSW 02:08:35 10° SW night (unlit)
05 Dec - 14:56:39 10° S 15:01:46 53° ESE 15:06:26 10° NE daylight
05 Dec - 16:41:25 10° W 16:45:04 20° NW 16:48:32 10° N daylight
05 Dec - 23:44:19 10° N 23:48:06 28° NE 23:51:57 10° ESE night (unlit)
06 Dec - 01:27:25 10° NW 01:31:03 26° WSW 01:34:48 10° SSW night (unlit)
06 Dec - 14:22:12 10° S 14:26:55 34° ESE 14:31:15 10° NE daylight
06 Dec - 16:05:36 10° WSW 16:09:59 28° NW 16:14:04 10° N daylight
06 Dec - 23:09:53 10° N 23:13:00 19° NE 23:16:11 10° E night (unlit)
07 Dec - 00:52:07 10° NW 00:56:13 42° WSW 01:00:31 10° S night (unlit)
07 Dec - 13:48:08 10° SSE 13:52:05 22° ESE 13:55:48 10° ENE daylight
07 Dec - 15:30:05 10° SW 15:34:58 42° WNW 15:39:27 10° NNE daylight
07 Dec - 22:35:49 10° NNE 22:37:51 13° NE 22:39:53 10° ENE night (unlit)
08 Dec - 00:17:01 10° NNW 00:21:22 70° WSW 00:25:52 10° SSE night (unlit)
08 Dec - 13:14:43 10° SE 13:17:19 14° ESE 13:19:49 10° ENE daylight
08 Dec - 14:54:50 10° SW 14:59:59 65° WNW 15:04:41 10° NNE daylight
08 Dec - 23:42:06 10° NNW 23:46:27 72° ENE 23:50:58 10° SE night (unlit)
09 Dec - 14:19:50 10° SSW 14:25:03 82° ESE 14:29:48 10° NNE daylight
09 Dec - 16:06:14 10° WNW 16:08:37 13° NW 16:10:56 10° NNW daylight
09 Dec - 23:07:18 10° NNW 23:11:29 44° ENE 23:15:48 10° SE night (unlit)
10 Dec - 00:51:28 10° WNW 00:54:12 16° WSW 00:57:00 10° SSW night (unlit)
10 Dec - 13:45:06 10° S 13:50:10 52° ESE 13:54:47 10° NE daylight
10 Dec - 15:29:54 10° W 15:33:27 19° NW 15:36:51 10° N daylight
10 Dec - 22:32:40 10° N 22:36:28 28° NE 22:40:21 10° ESE night (unlit)
11 Dec - 00:15:46 10° NW 00:19:25 26° WSW 00:23:12 10° SSW night (unlit)
11 Dec - 13:10:39 10° S 13:15:18 33° ESE 13:19:35 10° NE daylight
11 Dec - 14:54:03 10° WSW 14:58:22 28° NW 15:02:24 10° N daylight
11 Dec - 21:58:13 10° N 22:01:22 19° NE 22:04:35 10° E night (unlit)
11 Dec - 23:40:27 10° NW 23:44:35 42° WSW 23:48:54 10° S night (unlit)
